When you browse on this site, cookies collect data to enhance your experience and personalize the content and advertising you see.
Visit our Privacy Policy to learn more. By continuing to use the site, you agree to this use of cookies and data.
  • In Hungary
  • List of Countries
  • For 7 days
  • Water Temperature
  • Weather Map
  • News
  • Weather Widgets
  • user-avatar
    Login

    Hourly Weather Demyahi

    Today, 20 February, Thursday

    Time Temperature Precipitation Wind Pressure Humidity
    00:00 -1°C° 0 mm 2 mps 741 mmHg 93%
    01:00 -1°C° 0 mm 2 mps 741 mmHg 93%
    02:00 -1°C° 0 mm 3 mps 741 mmHg 94%
    03:00 -1°C° 0 mm 2 mps 741 mmHg 94%
    04:00 -1°C° 0 mm 2 mps 741 mmHg 95%
    05:00 -1°C° 0 mm 2 mps 742 mmHg 95%
    06:00 +1°C° 0 mm 2 mps 742 mmHg 95%
    07:00 +1°C° 0 mm 2 mps 742 mmHg 95%
    08:00 +1°C° 0 mm 3 mps 743 mmHg 96%
    09:00 +1°C° 0 mm 3 mps 743 mmHg 93%
    10:00 +2°C° 0 mm 3 mps 744 mmHg 91%
    11:00 +2°C° 0 mm 3 mps 744 mmHg 88%
    12:00 +2°C° 0 mm 3 mps 744 mmHg 88%
    13:00 +4°C° 0 mm 2 mps 744 mmHg 87%
    14:00 +4°C° 0 mm 2 mps 744 mmHg 86%
    15:00 +3°C° 0 mm 2 mps 744 mmHg 88%
    16:00 +2°C° 0 mm 2 mps 745 mmHg 90%
    17:00 +2°C° 0 mm 2 mps 745 mmHg 91%
    18:00 +1°C° 0 mm 2 mps 745 mmHg 92%
    19:00 +1°C° 0 mm 2 mps 746 mmHg 92%
    20:00 -1°C° 0 mm 2 mps 746 mmHg 93%
    21:00 -1°C° 0 mm 2 mps 746 mmHg 93%
    22:00 -1°C° 0 mm 2 mps 746 mmHg 94%
    23:00 -1°C° 0 mm 2 mps 746 mmHg 94%

    Tomorrow, 21 February, Friday

    Time Temperature Precipitation Wind Pressure Humidity
    00:00 -2°C° 0 mm 2 mps 746 mmHg 94%
    01:00 -2°C° 0 mm 2 mps 746 mmHg 94%
    02:00 -2°C° 0 mm 2 mps 746 mmHg 94%
    03:00 -1°C° 0 mm 2 mps 746 mmHg 94%
    04:00 -1°C° 0 mm 2 mps 746 mmHg 93%
    05:00 +1°C° 0 mm 2 mps 745 mmHg 92%
    06:00 +1°C° 0 mm 2 mps 746 mmHg 91%
    07:00 +1°C° 0 mm 2 mps 746 mmHg 90%
    08:00 +1°C° 0 mm 2 mps 746 mmHg 90%
    15:00 +2°C° 0 mm 3 mps 745 mmHg 85%
    16:00 +1°C° 0 mm 3 mps 745 mmHg 85%
    17:00 +1°C° 0 mm 3 mps 744 mmHg 85%
    18:00 +1°C° 0 mm 3 mps 745 mmHg 86%
    19:00 0°C° 0 mm 3 mps 745 mmHg 86%
    20:00 0°C° 0 mm 3 mps 746 mmHg 87%
    21:00 0°C° 0 mm 3 mps 746 mmHg 88%
    22:00 0°C° 0 mm 3 mps 746 mmHg 88%
    23:00 +1°C° 0 mm 3 mps 746 mmHg 89%

    Day after tomorrow, 22 February, Saturday

    Time Temperature Precipitation Wind Pressure Humidity
    00:00 0°C° 0 mm 3 mps 746 mmHg 90%
    01:00 0°C° 0 mm 3 mps 746 mmHg 91%
    02:00 0°C° 0 mm 3 mps 746 mmHg 92%
    03:00 -1°C° 0 mm 4 mps 746 mmHg 92%
    04:00 -1°C° 0 mm 4 mps 746 mmHg 92%
    05:00 -2°C° 0 mm 4 mps 746 mmHg 91%
    06:00 -1°C° 0 mm 4 mps 746 mmHg 91%
    07:00 -1°C° 0 mm 4 mps 746 mmHg 90%
    08:00 -1°C° 0 mm 4 mps 746 mmHg 89%
    09:00 -1°C° 0 mm 5 mps 746 mmHg 88%
    10:00 0°C° 0 mm 5 mps 746 mmHg 88%
    11:00 0°C° 0 mm 5 mps 745 mmHg 87%
    12:00 0°C° 0 mm 5 mps 745 mmHg 86%
    13:00 0°C° 0 mm 5 mps 745 mmHg 84%
    14:00 0°C° 0 mm 5 mps 744 mmHg 83%
    15:00 0°C° 0 mm 5 mps 743 mmHg 83%
    16:00 0°C° 0 mm 5 mps 743 mmHg 82%
    17:00 -1°C° 0 mm 5 mps 742 mmHg 81%
    18:00 -2°C° 0 mm 6 mps 741 mmHg 80%
    19:00 -2°C° 0 mm 6 mps 740 mmHg 79%
    20:00 -2°C° 0 mm 7 mps 739 mmHg 78%
    21:00 -2°C° 0.2 mm 7 mps 738 mmHg 84%
    22:00 -2°C° 0.2 mm 8 mps 736 mmHg 89%
    23:00 -2°C° 0.2 mm 8 mps 734 mmHg 95%

    23 February, Sunday

    Time Temperature Precipitation Wind Pressure Humidity
    00:00 -3°C° 1.3 mm 9 mps 733 mmHg 95%
    01:00 -4°C° 1.3 mm 9 mps 732 mmHg 96%
    02:00 -4°C° 1.3 mm 9 mps 730 mmHg 96%
    03:00 -2°C° 1 mm 8 mps 729 mmHg 96%
    04:00 -2°C° 1 mm 8 mps 728 mmHg 96%
    05:00 -2°C° 1 mm 7 mps 727 mmHg 96%
    06:00 -2°C° 0.3 mm 6 mps 727 mmHg 92%
    07:00 0°C° 0.3 mm 5 mps 727 mmHg 88%
    08:00 0°C° 0.3 mm 5 mps 726 mmHg 85%
    09:00 0°C° 0.1 mm 5 mps 727 mmHg 81%
    10:00 0°C° 0.1 mm 5 mps 727 mmHg 76%
    11:00 +1°C° 0.1 mm 6 mps 727 mmHg 72%
    12:00 -1°C° 0 mm 6 mps 727 mmHg 73%
    13:00 -1°C° 0 mm 6 mps 728 mmHg 74%
    14:00 -1°C° 0 mm 6 mps 728 mmHg 74%
    15:00 0°C° 0.1 mm 5 mps 728 mmHg 76%
    16:00 -1°C° 0.1 mm 4 mps 728 mmHg 79%
    17:00 -1°C° 0.1 mm 4 mps 728 mmHg 81%
    18:00 0°C° 0 mm 3 mps 729 mmHg 82%
    19:00 -1°C° 0 mm 3 mps 729 mmHg 83%
    20:00 -2°C° 0 mm 3 mps 729 mmHg 84%
    21:00 -2°C° 0 mm 3 mps 729 mmHg 85%
    22:00 -2°C° 0 mm 3 mps 729 mmHg 86%
    23:00 -2°C° 0 mm 3 mps 728 mmHg 88%

    24 February, Monday

    Time Temperature Precipitation Wind Pressure Humidity
    00:00 -2°C° 0 mm 3 mps 728 mmHg 90%
    01:00 -1°C° 0 mm 3 mps 728 mmHg 92%
    02:00 -1°C° 0 mm 3 mps 728 mmHg 94%
    03:00 -1°C° 0.1 mm 3 mps 728 mmHg 94%
    04:00 -1°C° 0.1 mm 3 mps 728 mmHg 95%
    05:00 -1°C° 0.1 mm 3 mps 728 mmHg 95%
    06:00 -1°C° 0 mm 3 mps 728 mmHg 94%
    07:00 -1°C° 0 mm 3 mps 728 mmHg 93%
    08:00 -1°C° 0 mm 3 mps 728 mmHg 92%
    09:00 -1°C° 0.1 mm 3 mps 728 mmHg 91%
    10:00 0°C° 0.1 mm 3 mps 728 mmHg 90%
    11:00 0°C° 0.1 mm 3 mps 728 mmHg 90%
    12:00 0°C° 0.1 mm 3 mps 729 mmHg 90%
    13:00 0°C° 0.1 mm 3 mps 729 mmHg 91%
    14:00 0°C° 0.1 mm 3 mps 729 mmHg 92%
    15:00 0°C° 0.1 mm 3 mps 730 mmHg 91%
    16:00 0°C° 0.1 mm 3 mps 730 mmHg 91%
    17:00 0°C° 0.1 mm 3 mps 731 mmHg 90%
    18:00 0°C° 0 mm 3 mps 732 mmHg 88%
    19:00 -1°C° 0 mm 3 mps 733 mmHg 86%
    20:00 -1°C° 0 mm 3 mps 733 mmHg 83%
    21:00 -2°C° 0 mm 3 mps 734 mmHg 85%
    22:00 -2°C° 0 mm 3 mps 734 mmHg 88%
    23:00 -2°C° 0 mm 3 mps 735 mmHg 90%

    25 February, Tuesday

    Time Temperature Precipitation Wind Pressure Humidity
    00:00 -4°C° 0 mm 3 mps 735 mmHg 90%
    01:00 -4°C° 0 mm 3 mps 735 mmHg 90%
    02:00 -4°C° 0 mm 3 mps 736 mmHg 90%
    03:00 -4°C° 0 mm 3 mps 736 mmHg 91%
    04:00 -4°C° 0 mm 3 mps 737 mmHg 92%
    05:00 -4°C° 0 mm 2 mps 737 mmHg 93%
    06:00 -4°C° 0 mm 2 mps 737 mmHg 92%
    07:00 -4°C° 0 mm 2 mps 737 mmHg 92%
    08:00 -4°C° 0 mm 2 mps 738 mmHg 91%
    09:00 -3°C° 0 mm 2 mps 738 mmHg 87%
    10:00 -2°C° 0 mm 2 mps 738 mmHg 82%
    11:00 -1°C° 0 mm 2 mps 738 mmHg 77%
    12:00 -1°C° 0 mm 2 mps 737 mmHg 75%
    13:00 -1°C° 0 mm 3 mps 737 mmHg 74%
    14:00 0°C° 0 mm 3 mps 737 mmHg 72%
    15:00 -1°C° 0 mm 3 mps 736 mmHg 74%
    16:00 -1°C° 0 mm 3 mps 736 mmHg 76%
    17:00 -1°C° 0 mm 3 mps 736 mmHg 79%
    18:00 -2°C° 0 mm 3 mps 735 mmHg 80%
    19:00 -3°C° 0 mm 4 mps 735 mmHg 81%
    20:00 -3°C° 0 mm 4 mps 735 mmHg 82%
    21:00 -3°C° 0.2 mm 4 mps 734 mmHg 85%
    22:00 -2°C° 0.2 mm 4 mps 734 mmHg 89%
    23:00 -2°C° 0.2 mm 4 mps 733 mmHg 93%
    Show more